Hourly Data Report for June 19, 2019

TORONTO CITY
ONTARIO
Current Station Operator: ECCC - MSC

43°40'00.000" N
79°24'00.000" W
112.50 m
6158355
71508
XTO

Download Data

Hourly Data (June 2019)
Hourly Data Report for June 19, 2019
TIME
LST
Temp Definition
°C
Dew Point Definition
°C
Rel Hum Definition
%
Precip. Amount Definition
mm

Wind Dir Definition
10's deg

Wind Spd Definition
km/h
Visibility Definition
km
Stn Press Definition
kPa
Hmdx Definition


Wind Chill Definition


Weather Definition


00:00 18.9 7.9 49 0.0       99.76     LegendNANA
01:00 17.9 8.0 52 0.0       99.71     LegendNANA
02:00 17.3 9.5 60 0.0       99.68     LegendNANA
03:00 16.9 9.4 61 0.0       99.65     LegendNANA
04:00 17.1 10.0 63 0.0       99.61     LegendNANA
05:00 16.6 10.0 65 0.0       99.67     LegendNANA
06:00 17.1 10.4 65 0.0       99.63     LegendNANA
07:00 19.5 11.1 58 0.0       99.61     LegendNANA
08:00 22.0 12.0 53 0.0       99.61     LegendNANA
09:00 23.3 11.1 46 0.0       99.58 25   LegendNANA
10:00 22.3 10.9 48 0.0       99.57     LegendNANA
11:00 22.4 8.8 42 0.0       99.56     LegendNANA
12:00 23.1 10.2 44 0.0       99.52     LegendNANA
13:00 24.2 10.7 42 0.0       99.47 26   LegendNANA
14:00 24.0 11.1 44 0.0       99.43 26   LegendNANA
15:00 24.8 12.1 45 0.0       99.37 27   LegendNANA
16:00 24.6 12.4 46 0.0       99.31 27   LegendNANA
17:00 24.4 11.1 43 0.0       99.25 26   LegendNANA
18:00 22.4 11.9 51 0.0       99.23 25   LegendNANA
19:00 21.5 12.0 54 0.0       99.22     LegendNANA
20:00 20.0 11.1 57 0.0       99.24     LegendNANA
21:00 19.8 11.0 57 0.0       99.26     LegendNANA
22:00 19.7 10.9 57 0.0       99.22     LegendNANA
23:00 19.3 10.8 58 0.0       99.21     LegendNANA

Notes on Data Quality.

Legend

  • E = Estimated
  • M = Missing
  • NA = Not Available*
  • [empty] = Indicates an unobserved value
Date modified: